Time,TemperatureF,DewpointF,PressureIn,WindDirection,WindDirectionDegrees,WindSpeedMPH,WindSpeedGustMPH,Humidity,HourlyPrecipIn,Conditions,Clouds,dailyrainin,SolarRadiationWatts/m^2,SoftwareType,DateUTC
2013-01-23 00:02:00,41.0,23.0,-100.00,East,85,0.0,6.0,48,0.00,,,0.00,0.000000,,2013-01-23 08:02:00,
2013-01-23 00:22:00,41.0,23.0,-100.00,East,85,0.0,6.0,48,0.00,,,0.00,0.000000,,2013-01-23 08:22:00,
2013-01-23 00:43:00,40.0,25.0,-100.00,East,79,0.0,0.0,55,0.00,,,0.00,0.000000,,2013-01-23 08:43:00,
2013-01-23 00:53:00,40.0,25.0,-100.00,East,79,0.0,0.0,55,0.00,,,0.00,0.000000,,2013-01-23 08:53:00,
2013-01-23 01:02:00,40.0,25.0,-100.00,East,79,0.0,0.0,55,0.00,,,0.00,0.000000,,2013-01-23 09:02:00,
2013-01-23 01:12:00,40.0,25.0,-100.00,East,79,0.0,0.0,55,0.00,,,0.00,0.000000,,2013-01-23 09:12:00,
2013-01-23 01:22:00,40.0,25.0,-100.00,East,79,0.0,0.0,55,0.00,,,0.00,0.000000,,2013-01-23 09:22:00,
2013-01-23 01:43:00,39.0,25.0,-100.00,ESE,105,0.0,0.0,56,0.00,,,-99.99,0.000000,,2013-01-23 09:43:00,
2013-01-23 01:53:00,39.0,25.0,-100.00,ESE,105,0.0,0.0,56,0.00,,,-99.99,0.000000,,2013-01-23 09:53:00,
2013-01-23 02:02:00,39.0,25.0,-100.00,ESE,105,0.0,0.0,56,0.00,,,-99.99,0.000000,,2013-01-23 10:02:00,
2013-01-23 02:12:00,39.0,25.0,-100.00,ESE,105,0.0,0.0,56,0.00,,,-99.99,0.000000,,2013-01-23 10:12:00,
2013-01-23 02:22:00,39.0,25.0,-100.00,ESE,105,0.0,0.0,56,0.00,,,-99.99,0.000000,,2013-01-23 10:22:00,
2013-01-23 02:43:00,47.0,26.0,-100.00,ESE,117,0.0,5.0,43,-99.99,,,0.00,0.000000,,2013-01-23 10:43:00,
2013-01-23 02:53:00,47.0,26.0,-100.00,ESE,117,0.0,5.0,43,-99.99,,,0.00,0.000000,,2013-01-23 10:53:00,
2013-01-23 03:02:00,47.0,26.0,-100.00,ESE,117,0.0,5.0,43,-99.99,,,0.00,0.000000,,2013-01-23 11:02:00,
2013-01-23 03:12:00,47.0,26.0,-100.00,ESE,117,0.0,5.0,43,-99.99,,,0.00,0.000000,,2013-01-23 11:12:00,
2013-01-23 03:22:00,47.0,26.0,-100.00,ESE,117,0.0,5.0,43,-99.99,,,0.00,0.000000,,2013-01-23 11:22:00,
2013-01-23 03:43:00,49.0,23.0,-100.00,ESE,111,1.0,6.0,36,0.00,,,0.00,0.000000,,2013-01-23 11:43:00,
2013-01-23 03:53:00,49.0,23.0,-100.00,ESE,111,1.0,6.0,36,0.00,,,0.00,0.000000,,2013-01-23 11:53:00,
2013-01-23 04:03:00,49.0,23.0,-100.00,ESE,111,1.0,6.0,36,0.00,,,0.00,0.000000,,2013-01-23 12:03:00,
2013-01-23 04:12:00,49.0,23.0,-100.00,ESE,111,1.0,6.0,36,0.00,,,0.00,0.000000,,2013-01-23 12:12:00,
2013-01-23 04:22:00,49.0,23.0,-100.00,ESE,111,1.0,6.0,36,0.00,,,0.00,0.000000,,2013-01-23 12:22:00,
2013-01-23 04:43:00,49.0,25.0,-100.00,ESE,120,2.0,10.0,38,0.00,,,0.00,0.000000,,2013-01-23 12:43:00,
2013-01-23 04:53:00,49.0,25.0,-100.00,ESE,120,2.0,10.0,38,0.00,,,0.00,0.000000,,2013-01-23 12:53:00,
2013-01-23 05:03:00,49.0,25.0,-100.00,ESE,120,2.0,10.0,38,0.00,,,0.00,0.000000,,2013-01-23 13:03:00,
2013-01-23 05:12:00,49.0,25.0,-100.00,ESE,120,2.0,10.0,38,0.00,,,0.00,0.000000,,2013-01-23 13:12:00,
2013-01-23 05:22:00,49.0,25.0,-100.00,ESE,120,2.0,10.0,38,0.00,,,0.00,0.000000,,2013-01-23 13:22:00,
2013-01-23 05:23:00,49.0,24.0,-100.00,SE,124,0.0,4.0,37,0.00,,,0.00,0.000000,,2013-01-23 13:23:00,
2013-01-23 05:43:00,49.0,24.0,-100.00,SE,124,0.0,4.0,37,0.00,,,0.00,0.000000,,2013-01-23 13:43:00,
2013-01-23 05:53:00,49.0,24.0,-100.00,SE,124,0.0,4.0,37,0.00,,,0.00,0.000000,,2013-01-23 13:53:00,
2013-01-23 06:02:00,49.0,24.0,-100.00,SE,124,0.0,4.0,37,0.00,,,0.00,0.000000,,2013-01-23 14:02:00,
2013-01-23 06:12:00,49.0,24.0,-100.00,SE,124,0.0,4.0,37,0.00,,,0.00,0.000000,,2013-01-23 14:12:00,
2013-01-23 06:43:00,48.0,23.0,-100.00,ESE,123,2.0,9.0,37,0.00,,,0.00,0.000000,,2013-01-23 14:43:00,
2013-01-23 06:53:00,48.0,23.0,-100.00,ESE,123,2.0,9.0,37,0.00,,,0.00,0.000000,,2013-01-23 14:53:00,
2013-01-23 07:02:00,48.0,23.0,-100.00,ESE,123,2.0,9.0,37,0.00,,,0.00,0.000000,,2013-01-23 15:02:00,
2013-01-23 07:12:00,48.0,23.0,-100.00,ESE,123,2.0,9.0,37,0.00,,,0.00,0.000000,,2013-01-23 15:12:00,
2013-01-23 07:22:00,48.0,23.0,-100.00,ESE,123,2.0,9.0,37,0.00,,,0.00,0.000000,,2013-01-23 15:22:00,
2013-01-23 07:43:00,49.0,26.0,-100.00,ESE,117,1.0,8.0,41,0.00,,,0.00,10.000000,,2013-01-23 15:43:00,
2013-01-23 07:53:00,49.0,26.0,-100.00,ESE,117,1.0,8.0,41,0.00,,,0.00,10.000000,,2013-01-23 15:53:00,
2013-01-23 08:03:00,49.0,26.0,-100.00,ESE,117,1.0,8.0,41,0.00,,,0.00,10.000000,,2013-01-23 16:03:00,
2013-01-23 08:12:00,49.0,26.0,-100.00,ESE,117,1.0,8.0,41,0.00,,,0.00,10.000000,,2013-01-23 16:12:00,
2013-01-23 08:22:00,49.0,26.0,-100.00,ESE,117,1.0,8.0,41,0.00,,,0.00,10.000000,,2013-01-23 16:22:00,
2013-01-23 08:43:00,54.0,32.0,-100.00,ESE,112,1.0,10.0,43,0.00,,,0.00,77.000000,,2013-01-23 16:43:00,
2013-01-23 08:53:00,54.0,32.0,-100.00,ESE,112,1.0,10.0,43,0.00,,,0.00,77.000000,,2013-01-23 16:53:00,
2013-01-23 09:03:00,54.0,32.0,-100.00,ESE,112,1.0,10.0,43,0.00,,,0.00,77.000000,,2013-01-23 17:03:00,
2013-01-23 09:12:00,54.0,32.0,-100.00,ESE,112,1.0,10.0,43,0.00,,,0.00,77.000000,,2013-01-23 17:12:00,
2013-01-23 09:22:00,54.0,32.0,-100.00,ESE,112,1.0,10.0,43,0.00,,,0.00,77.000000,,2013-01-23 17:22:00,
2013-01-23 09:43:00,58.0,32.0,-100.00,ESE,120,5.0,13.0,37,0.00,,,0.00,270.000000,,2013-01-23 17:43:00,
2013-01-23 09:53:00,58.0,32.0,-100.00,ESE,120,5.0,13.0,37,0.00,,,0.00,270.000000,,2013-01-23 17:53:00,
2013-01-23 10:03:00,58.0,32.0,-100.00,ESE,120,5.0,13.0,37,0.00,,,0.00,270.000000,,2013-01-23 18:03:00,
2013-01-23 10:12:00,58.0,32.0,-100.00,ESE,120,5.0,13.0,37,0.00,,,0.00,270.000000,,2013-01-23 18:12:00,
2013-01-23 10:22:00,58.0,32.0,-100.00,ESE,120,5.0,13.0,37,0.00,,,0.00,270.000000,,2013-01-23 18:22:00,
2013-01-23 10:44:00,60.0,32.0,-100.00,ESE,122,6.0,15.0,34,0.00,,,0.00,382.000000,,2013-01-23 18:44:00,
2013-01-23 10:53:00,60.0,32.0,-100.00,ESE,122,6.0,15.0,34,0.00,,,0.00,382.000000,,2013-01-23 18:53:00,
2013-01-23 11:02:00,60.0,32.0,-100.00,ESE,122,6.0,15.0,34,0.00,,,0.00,382.000000,,2013-01-23 19:02:00,
2013-01-23 11:12:00,60.0,32.0,-100.00,ESE,122,6.0,15.0,34,0.00,,,0.00,382.000000,,2013-01-23 19:12:00,
2013-01-23 11:22:00,60.0,32.0,-100.00,ESE,122,6.0,15.0,34,0.00,,,0.00,382.000000,,2013-01-23 19:22:00,
2013-01-23 11:43:00,60.0,28.0,-100.00,SE,125,5.0,24.0,30,0.00,,,0.00,288.000000,,2013-01-23 19:43:00,
2013-01-23 11:53:00,60.0,28.0,-100.00,SE,125,5.0,24.0,30,0.00,,,0.00,288.000000,,2013-01-23 19:53:00,
2013-01-23 12:03:00,60.0,28.0,-100.00,SE,125,5.0,24.0,30,0.00,,,0.00,288.000000,,2013-01-23 20:03:00,
2013-01-23 12:12:00,60.0,28.0,-100.00,SE,125,5.0,24.0,30,0.00,,,0.00,288.000000,,2013-01-23 20:12:00,
2013-01-23 12:22:00,60.0,28.0,-100.00,SE,125,5.0,24.0,30,0.00,,,0.00,288.000000,,2013-01-23 20:22:00,
2013-01-23 12:43:00,60.0,29.0,-100.00,SE,141,5.0,16.0,31,0.00,,,0.00,321.000000,,2013-01-23 20:43:00,
2013-01-23 12:53:00,60.0,29.0,-100.00,SE,141,5.0,16.0,31,0.00,,,0.00,321.000000,,2013-01-23 20:53:00,
2013-01-23 13:02:00,60.0,29.0,-100.00,SE,141,5.0,16.0,31,0.00,,,0.00,321.000000,,2013-01-23 21:02:00,
2013-01-23 13:12:00,60.0,29.0,-100.00,SE,141,5.0,16.0,31,0.00,,,0.00,321.000000,,2013-01-23 21:12:00,
2013-01-23 13:22:00,60.0,29.0,-100.00,SE,141,5.0,16.0,31,0.00,,,0.00,321.000000,,2013-01-23 21:22:00,
2013-01-23 13:43:00,60.0,32.0,-100.00,SSE,166,5.0,16.0,34,0.00,,,0.00,318.000000,,2013-01-23 21:43:00,
2013-01-23 13:53:00,60.0,32.0,-100.00,SSE,166,5.0,16.0,34,0.00,,,0.00,318.000000,,2013-01-23 21:53:00,
2013-01-23 14:02:00,60.0,32.0,-100.00,SSE,166,5.0,16.0,34,0.00,,,0.00,318.000000,,2013-01-23 22:02:00,
2013-01-23 14:12:00,60.0,32.0,-100.00,SSE,166,5.0,16.0,34,0.00,,,0.00,318.000000,,2013-01-23 22:12:00,
2013-01-23 14:22:00,60.0,32.0,-100.00,SSE,166,5.0,16.0,34,0.00,,,0.00,318.000000,,2013-01-23 22:22:00,
2013-01-23 15:03:00,58.0,31.0,-100.00,SSW,192,2.0,10.0,35,0.00,,,0.00,201.000000,,2013-01-23 23:03:00,
2013-01-23 15:12:00,58.0,31.0,-100.00,SSW,192,2.0,10.0,35,0.00,,,0.00,201.000000,,2013-01-23 23:12:00,
2013-01-23 15:22:00,58.0,31.0,-100.00,SSW,192,2.0,10.0,35,0.00,,,0.00,201.000000,,2013-01-23 23:22:00,
2013-01-23 15:43:00,56.0,31.0,-100.00,SW,215,0.0,8.0,39,0.00,,,0.00,195.000000,,2013-01-23 23:43:00,
2013-01-23 15:53:00,56.0,31.0,-100.00,SW,215,0.0,8.0,39,0.00,,,0.00,195.000000,,2013-01-23 23:53:00,
2013-01-23 16:02:00,56.0,31.0,-100.00,SW,215,0.0,8.0,39,0.00,,,0.00,195.000000,,2013-01-24 00:02:00,
2013-01-23 16:12:00,56.0,31.0,-100.00,SW,215,0.0,8.0,39,0.00,,,0.00,195.000000,,2013-01-24 00:12:00,
2013-01-23 16:22:00,56.0,31.0,-100.00,SW,215,0.0,8.0,39,0.00,,,0.00,195.000000,,2013-01-24 00:22:00,
2013-01-23 16:43:00,52.0,30.0,-100.00,South,172,1.0,10.0,43,0.00,,,0.00,104.000000,,2013-01-24 00:43:00,
2013-01-23 16:53:00,52.0,30.0,-100.00,South,172,1.0,10.0,43,0.00,,,0.00,104.000000,,2013-01-24 00:53:00,
2013-01-23 17:02:00,52.0,30.0,-100.00,South,172,1.0,10.0,43,0.00,,,0.00,104.000000,,2013-01-24 01:02:00,
2013-01-23 17:12:00,52.0,30.0,-100.00,South,172,1.0,10.0,43,0.00,,,0.00,104.000000,,2013-01-24 01:12:00,
2013-01-23 17:22:00,52.0,30.0,-100.00,South,172,1.0,10.0,43,0.00,,,0.00,104.000000,,2013-01-24 01:22:00,
2013-01-23 17:43:00,50.0,29.0,-100.00,South,176,2.0,9.0,44,0.00,,,0.00,10.000000,,2013-01-24 01:43:00,
2013-01-23 17:52:00,50.0,29.0,-100.00,South,176,2.0,9.0,44,0.00,,,0.00,10.000000,,2013-01-24 01:52:00,
2013-01-23 18:02:00,50.0,29.0,-100.00,South,176,2.0,9.0,44,0.00,,,0.00,10.000000,,2013-01-24 02:02:00,
2013-01-23 18:12:00,50.0,29.0,-100.00,South,176,2.0,9.0,44,0.00,,,0.00,10.000000,,2013-01-24 02:12:00,
2013-01-23 18:22:00,50.0,29.0,-100.00,South,176,2.0,9.0,44,0.00,,,0.00,10.000000,,2013-01-24 02:22:00,
2013-01-23 19:02:00,51.0,29.0,-100.00,SSE,161,3.0,8.0,43,0.00,,,0.00,0.000000,,2013-01-24 03:02:00,
2013-01-23 19:12:00,51.0,29.0,-100.00,SSE,161,3.0,8.0,43,0.00,,,0.00,0.000000,,2013-01-24 03:12:00,
2013-01-23 19:22:00,51.0,29.0,-100.00,SSE,161,3.0,8.0,43,0.00,,,0.00,0.000000,,2013-01-24 03:22:00,
2013-01-23 19:43:00,48.0,25.0,-100.00,SSE,167,5.0,10.0,41,0.00,,,0.00,0.000000,,2013-01-24 03:43:00,
2013-01-23 19:53:00,48.0,25.0,-100.00,SSE,167,5.0,10.0,41,0.00,,,0.00,0.000000,,2013-01-24 03:53:00,
2013-01-23 20:02:00,48.0,25.0,-100.00,SSE,167,5.0,10.0,41,0.00,,,0.00,0.000000,,2013-01-24 04:02:00,
2013-01-23 20:12:00,48.0,25.0,-100.00,SSE,167,5.0,10.0,41,0.00,,,0.00,0.000000,,2013-01-24 04:12:00,
2013-01-23 20:22:00,48.0,25.0,-100.00,SSE,167,5.0,10.0,41,0.00,,,0.00,0.000000,,2013-01-24 04:22:00,
2013-01-23 20:43:00,48.0,30.0,-100.00,SSE,155,4.0,11.0,49,0.00,,,0.00,0.000000,,2013-01-24 04:43:00,
2013-01-23 20:53:00,48.0,30.0,-100.00,SSE,155,4.0,11.0,49,0.00,,,0.00,0.000000,,2013-01-24 04:53:00,
2013-01-23 21:03:00,48.0,30.0,-100.00,SSE,155,4.0,11.0,49,0.00,,,0.00,0.000000,,2013-01-24 05:03:00,
2013-01-23 21:12:00,48.0,30.0,-100.00,SSE,155,4.0,11.0,49,0.00,,,0.00,0.000000,,2013-01-24 05:12:00,
2013-01-23 21:22:00,48.0,30.0,-100.00,SSE,155,4.0,11.0,49,0.00,,,0.00,0.000000,,2013-01-24 05:22:00,
2013-01-23 21:43:00,49.0,30.0,-100.00,SSE,159,2.0,12.0,48,0.00,,,0.00,0.000000,,2013-01-24 05:43:00,
2013-01-23 21:53:00,49.0,30.0,-100.00,SSE,159,2.0,12.0,48,0.00,,,0.00,0.000000,,2013-01-24 05:53:00,
2013-01-23 22:02:00,49.0,30.0,-100.00,SSE,159,2.0,12.0,48,0.00,,,0.00,0.000000,,2013-01-24 06:02:00,
2013-01-23 22:12:00,49.0,30.0,-100.00,SSE,159,2.0,12.0,48,0.00,,,0.00,0.000000,,2013-01-24 06:12:00,
2013-01-23 22:22:00,49.0,30.0,-100.00,SSE,159,2.0,12.0,48,0.00,,,0.00,0.000000,,2013-01-24 06:22:00,
2013-01-23 22:42:00,46.0,35.0,-100.00,South,170,3.0,10.0,64,0.00,,,0.00,0.000000,,2013-01-24 06:42:00,
2013-01-23 22:52:00,46.0,35.0,-100.00,South,170,3.0,10.0,64,0.00,,,0.00,0.000000,,2013-01-24 06:52:00,
2013-01-23 23:02:00,46.0,35.0,-100.00,South,170,3.0,10.0,64,0.00,,,0.00,0.000000,,2013-01-24 07:02:00,
2013-01-23 23:12:00,46.0,35.0,-100.00,South,170,3.0,10.0,64,0.00,,,0.00,0.000000,,2013-01-24 07:12:00,
2013-01-23 23:22:00,46.0,35.0,-100.00,South,170,3.0,10.0,64,0.00,,,0.00,0.000000,,2013-01-24 07:22:00,
2013-01-23 23:43:00,45.0,34.0,-100.00,SSE,167,4.0,10.0,65,0.00,,,0.00,0.000000,,2013-01-24 07:43:00,
2013-01-23 23:53:00,45.0,34.0,-100.00,SSE,167,4.0,10.0,65,0.00,,,0.00,0.000000,,2013-01-24 07:53:00,